Skip Page Navigation
NASA JPL Caltech
NASA Logo - Jet Propulsion Laboratory + View the NASA Portal
+ Center for Near-Earth Object Studies
JPL Home Earth Solar System Stars & Galaxies Technology
JPL Solar System Dynamics
BODIES ORBITS EPHEMERIDES TOOLS PHYSICAL DATA DISCOVERY FAQ SITE MAP

Significant website upgrade scheduled for September 27. More details available here.

JPL Small-Body Database Browser
Search: [ help ]  
74466 (1999 CS41)
Classification: Main-belt Asteroid          SPK-ID: 2074466
Ephemeris | Orbit Diagram | Orbital Elements | Mission Design | Physical Parameters | Discovery Circumstances | Close-Approach Data ]

[ show orbit diagram ]
Orbital Elements at Epoch 2459396.5 (2021-Jul-01.0) TDB
Reference: JPL 25 (heliocentric ecliptic J2000)
 Element Value Uncertainty (1-sigma)   Units 
e .1565175774828236 4.6194e-08  
a 2.787536466110675 1.4221e-08 au
q 2.351238011290001 1.2867e-07 au
i 8.83394091358805 3.8392e-06 deg
node 119.4618856938238 3.3838e-05 deg
peri 48.67137305670347 3.6336e-05 deg
M 275.897452636258 1.6319e-05 deg
tp 2459793.632941503527
(2022-Aug-02.13294150)
7.8839e-05 TDB
period 1699.923051354634
4.65
1.3009e-05
3.562e-08
d
yr
n .2117742916146254 1.6206e-09 deg/d
Q 3.223834920931349 1.6447e-08 au
  Orbit Determination Parameters
   # obs. used (total)      1217  
   data-arc span      8092 days (22.15 yr)  
   first obs. used      1998-12-17  
   last obs. used      2021-02-11  
   planetary ephem.      DE441  
   SB-pert. ephem.      SB441-N16  
   condition code      0  
   norm. resid. RMS      .50755  
   source      ORB  
   producer      Otto Matic  
   solution date      2021-Jul-08 22:55:08  

Additional Information
 Earth MOID = 1.37046 au 
 Jupiter MOID = 1.79079 au 
 T_jup = 3.295 
[ show covariance matrix ]

Ephemeris | Orbit Diagram | Orbital Elements | Mission Design | Physical Parameters | Discovery Circumstances | Close-Approach Data ]

Physical Parameter Table
Parameter Symbol Value Units Sigma Reference Notes
absolute magnitude H 14.29   n/a E2021B10  
diameter diameter 8.399 km 0.410 urn:nasa:pds:neowise_diameters_albedos::2.0[mainbelt] (http://adsabs.harvard.edu/abs/2011ApJ...741...68M)  
geometric albedo albedo 0.063   0.014 urn:nasa:pds:neowise_diameters_albedos::2.0[mainbelt] (http://adsabs.harvard.edu/abs/2011ApJ...741...68M)  

74466 (1999 CS41)          Discovered 1999-Feb-10 by LINEAR at Socorro
Reference: 20040415/Numbers.arcLast Updated: 2004-04-19

[ show close-approach data ]
Ephemeris | Orbit Diagram | Orbital Elements | Mission Design | Physical Parameters | Discovery Circumstances | Close-Approach Data ]
ABOUT SSD CREDITS/AWARDS PRIVACY/COPYRIGHT GLOSSARY LINKS
FirstGov 2021-Sep-19 00:47 UT
(server date/time)  
NASA Home Page
Site Manager:   Ryan S. Park
Webmaster  Alan B. Chamberlin